• In Uzbekistan
  • List of Countries
  • For 7 days
  • Water Temperature
  • Satellite Maps
  • Weather Map
  • Weather Widgets
  • user-avatar
    Login

    Hourly Weather Etchmiadzin

    Today, 26 May, Friday

    Time Temperature Precipitation Wind Pressure Humidity
    00:00 +14°C° 0 mm 1 mps 686 mmHg 69%
    01:00 +13°C° 0 mm 1 mps 686 mmHg 70%
    02:00 +13°C° 0 mm 1 mps 686 mmHg 72%
    03:00 +13°C° 0 mm 2 mps 685 mmHg 71%
    04:00 +14°C° 0 mm 2 mps 685 mmHg 69%
    05:00 +15°C° 0 mm 1 mps 686 mmHg 66%
    06:00 +16°C° 0 mm 1 mps 686 mmHg 63%
    07:00 +19°C° 0 mm 1 mps 686 mmHg 55%
    08:00 +21°C° 0 mm 1 mps 686 mmHg 46%
    09:00 +23°C° 0 mm 1 mps 687 mmHg 37%
    10:00 +24°C° 0 mm 2 mps 686 mmHg 34%
    11:00 +26°C° 0 mm 2 mps 686 mmHg 31%
    12:00 +27°C° 0 mm 2 mps 686 mmHg 28%
    13:00 +27°C° 0 mm 3 mps 686 mmHg 28%
    14:00 +27°C° 0 mm 3 mps 685 mmHg 28%
    15:00 +27°C° 0 mm 3 mps 685 mmHg 28%
    16:00 +26°C° 0.2 mm 3 mps 685 mmHg 34%
    17:00 +25°C° 0.2 mm 2 mps 684 mmHg 39%
    18:00 +24°C° 0.2 mm 2 mps 684 mmHg 44%
    19:00 +20°C° 0.2 mm 2 mps 684 mmHg 50%
    20:00 +19°C° 0.2 mm 1 mps 684 mmHg 55%
    21:00 +16°C° 0.2 mm 1 mps 684 mmHg 61%
    22:00 +15°C° 0.2 mm 1 mps 684 mmHg 63%
    23:00 +15°C° 0.2 mm 1 mps 684 mmHg 64%

    Tomorrow, 27 May, Saturday

    Time Temperature Precipitation Wind Pressure Humidity
    00:00 +14°C° 0.2 mm 1 mps 684 mmHg 66%
    01:00 +14°C° 0.1 mm 1 mps 684 mmHg 67%
    02:00 +14°C° 0.1 mm 1 mps 683 mmHg 68%
    03:00 +13°C° 0.1 mm 1 mps 683 mmHg 68%
    04:00 +15°C° 0.1 mm 1 mps 684 mmHg 66%
    05:00 +16°C° 0.1 mm 1 mps 684 mmHg 63%
    06:00 +18°C° 0.1 mm 1 mps 684 mmHg 60%
    07:00 +19°C° 0.1 mm 1 mps 684 mmHg 57%
    08:00 +19°C° 0.1 mm 2 mps 684 mmHg 54%
    09:00 +20°C° 0.1 mm 3 mps 684 mmHg 50%
    10:00 +22°C° 0.2 mm 3 mps 684 mmHg 45%
    11:00 +25°C° 0.2 mm 3 mps 684 mmHg 39%
    12:00 +27°C° 0.2 mm 3 mps 684 mmHg 34%
    13:00 +28°C° 0.3 mm 3 mps 683 mmHg 34%
    14:00 +28°C° 0.3 mm 3 mps 683 mmHg 35%
    15:00 +28°C° 0.3 mm 3 mps 682 mmHg 35%
    16:00 +27°C° 0.3 mm 2 mps 682 mmHg 38%
    17:00 +26°C° 0.3 mm 2 mps 682 mmHg 42%
    18:00 +25°C° 0.3 mm 2 mps 682 mmHg 45%
    19:00 +23°C° 0.2 mm 2 mps 682 mmHg 51%
    20:00 +20°C° 0.2 mm 1 mps 682 mmHg 58%
    21:00 +18°C° 0.2 mm 1 mps 682 mmHg 64%
    22:00 +16°C° 0.1 mm 1 mps 682 mmHg 66%
    23:00 +15°C° 0.1 mm 1 mps 682 mmHg 67%

    Day after tomorrow, 28 May, Sunday

    Time Temperature Precipitation Wind Pressure Humidity
    00:00 +15°C° 0.1 mm 1 mps 682 mmHg 69%
    01:00 +14°C° 0 mm 1 mps 682 mmHg 69%
    02:00 +14°C° 0 mm 1 mps 683 mmHg 70%
    03:00 +14°C° 0 mm 1 mps 683 mmHg 70%
    04:00 +15°C° 0 mm 1 mps 683 mmHg 67%
    05:00 +16°C° 0 mm 1 mps 683 mmHg 65%
    06:00 +18°C° 0 mm 1 mps 684 mmHg 62%
    07:00 +20°C° 0 mm 1 mps 684 mmHg 53%
    08:00 +23°C° 0 mm 2 mps 685 mmHg 44%
    09:00 +25°C° 0 mm 2 mps 685 mmHg 35%
    10:00 +26°C° 0 mm 2 mps 685 mmHg 32%
    11:00 +27°C° 0 mm 3 mps 685 mmHg 29%
    12:00 +28°C° 0 mm 3 mps 685 mmHg 25%
    13:00 +28°C° 0 mm 4 mps 685 mmHg 25%
    14:00 +29°C° 0 mm 4 mps 684 mmHg 24%
    15:00 +29°C° 0 mm 5 mps 684 mmHg 24%
    16:00 +28°C° 0.1 mm 5 mps 684 mmHg 27%
    17:00 +27°C° 0.1 mm 4 mps 684 mmHg 31%
    18:00 +26°C° 0.1 mm 4 mps 684 mmHg 35%
    19:00 +22°C° 0 mm 3 mps 684 mmHg 43%
    20:00 +19°C° 0 mm 2 mps 685 mmHg 51%
    21:00 +16°C° 0 mm 2 mps 685 mmHg 58%
    22:00 +16°C° 0 mm 1 mps 685 mmHg 60%
    23:00 +15°C° 0 mm 1 mps 685 mmHg 62%

    29 May, Monday

    Time Temperature Precipitation Wind Pressure Humidity
    00:00 +14°C° 0 mm 1 mps 685 mmHg 63%
    01:00 +14°C° 0 mm 1 mps 685 mmHg 65%
    02:00 +13°C° 0 mm 1 mps 685 mmHg 67%
    03:00 +13°C° 0 mm 1 mps 685 mmHg 68%
    04:00 +14°C° 0 mm 1 mps 686 mmHg 65%
    05:00 +16°C° 0 mm 1 mps 686 mmHg 62%
    06:00 +18°C° 0 mm 1 mps 687 mmHg 59%
    07:00 +20°C° 0 mm 1 mps 687 mmHg 52%
    08:00 +22°C° 0 mm 1 mps 688 mmHg 45%
    09:00 +24°C° 0 mm 1 mps 688 mmHg 37%
    10:00 +26°C° 0 mm 1 mps 688 mmHg 34%
    11:00 +27°C° 0 mm 2 mps 688 mmHg 31%
    12:00 +28°C° 0 mm 2 mps 688 mmHg 28%
    13:00 +28°C° 0.1 mm 2 mps 688 mmHg 28%
    14:00 +29°C° 0.1 mm 2 mps 687 mmHg 29%
    15:00 +29°C° 0.1 mm 2 mps 687 mmHg 29%
    16:00 +28°C° 0.2 mm 2 mps 687 mmHg 33%
    17:00 +27°C° 0.2 mm 2 mps 687 mmHg 37%
    18:00 +26°C° 0.2 mm 2 mps 687 mmHg 42%
    19:00 +24°C° 0.2 mm 2 mps 687 mmHg 49%
    20:00 +20°C° 0.2 mm 2 mps 687 mmHg 56%
    21:00 +18°C° 0.2 mm 2 mps 687 mmHg 63%
    22:00 +18°C° 0.1 mm 2 mps 687 mmHg 65%
    23:00 +17°C° 0.1 mm 2 mps 687 mmHg 68%

    30 May, Tuesday

    Time Temperature Precipitation Wind Pressure Humidity
    00:00 +17°C° 0.1 mm 2 mps 687 mmHg 71%
    01:00 +16°C° 0.1 mm 2 mps 687 mmHg 72%
    02:00 +16°C° 0.1 mm 2 mps 687 mmHg 73%
    03:00 +16°C° 0.1 mm 2 mps 687 mmHg 75%
    04:00 +16°C° 0 mm 2 mps 687 mmHg 73%
    05:00 +17°C° 0 mm 2 mps 687 mmHg 71%
    06:00 +19°C° 0 mm 1 mps 688 mmHg 69%
    07:00 +21°C° 0 mm 1 mps 688 mmHg 59%
    08:00 +23°C° 0 mm 1 mps 688 mmHg 49%
    09:00 +26°C° 0 mm 1 mps 688 mmHg 40%
    10:00 +27°C° 0 mm 2 mps 688 mmHg 35%
    11:00 +28°C° 0 mm 2 mps 687 mmHg 31%
    12:00 +30°C° 0 mm 2 mps 687 mmHg 27%
    13:00 +30°C° 0 mm 3 mps 687 mmHg 26%
    14:00 +30°C° 0 mm 3 mps 686 mmHg 26%
    15:00 +30°C° 0 mm 3 mps 686 mmHg 25%
    16:00 +29°C° 0 mm 3 mps 686 mmHg 28%
    17:00 +28°C° 0 mm 2 mps 686 mmHg 31%
    18:00 +28°C° 0 mm 2 mps 686 mmHg 34%
    19:00 +25°C° 0 mm 2 mps 686 mmHg 38%
    20:00 +21°C° 0 mm 2 mps 686 mmHg 43%
    21:00 +18°C° 0 mm 2 mps 686 mmHg 47%
    22:00 +18°C° 0 mm 1 mps 686 mmHg 48%
    23:00 +16°C° 0 mm 1 mps 686 mmHg 50%

    31 May, Wednesday

    Time Temperature Precipitation Wind Pressure Humidity
    00:00 +15°C° 0 mm 1 mps 685 mmHg 51%
    01:00 +15°C° 0 mm 1 mps 685 mmHg 50%
    02:00 +15°C° 0 mm 1 mps 685 mmHg 49%
    03:00 +14°C° 0 mm 1 mps 684 mmHg 48%
    04:00 +16°C° 0 mm 1 mps 685 mmHg 47%
    05:00 +18°C° 0 mm 1 mps 685 mmHg 47%
    06:00 +19°C° 0 mm 1 mps 686 mmHg 46%
    07:00 +22°C° 0 mm 1 mps 686 mmHg 39%
    08:00 +24°C° 0 mm 1 mps 686 mmHg 32%
    09:00 +27°C° 0 mm 1 mps 686 mmHg 26%
    10:00 +28°C° 0 mm 1 mps 686 mmHg 25%
    11:00 +29°C° 0 mm 2 mps 686 mmHg 24%
    12:00 +30°C° 0 mm 2 mps 685 mmHg 23%
    13:00 +30°C° 0.1 mm 2 mps 685 mmHg 24%
    14:00 +31°C° 0.1 mm 2 mps 685 mmHg 25%
    15:00 +31°C° 0.1 mm 2 mps 684 mmHg 27%
    16:00 +30°C° 0.2 mm 2 mps 684 mmHg 30%
    17:00 +29°C° 0.2 mm 1 mps 684 mmHg 34%
    18:00 +28°C° 0.2 mm 1 mps 684 mmHg 38%
    19:00 +25°C° 0.2 mm 1 mps 683 mmHg 45%
    20:00 +23°C° 0.2 mm 1 mps 683 mmHg 52%
    21:00 +19°C° 0.2 mm 2 mps 683 mmHg 59%
    22:00 +18°C° 0.2 mm 2 mps 682 mmHg 62%
    23:00 +18°C° 0.2 mm 2 mps 682 mmHg 65%
    Show more